CZ-2D DEB, 31409

Orbit data source: Space-Track

CZ-2D DEB, 31409 is space debris in SSO originally from a launch on Tue, 05 Jul 2005 UTC launched from the Jiuquan Satellite Launch Center, China (JSC). Debris objects in space refer to the collection of defunct objects orbiting the Earth. Examples of debris include non-operational satellites, rocket bodies, and fragments generated from explosions, collisions, or faulty payload assembly.

Loading next visibility...
Identifier
31409, 2005-024J
Orbit
SSO
Country
Flag of CNCN / PRC
Related business
Manufacturer
Unknown
Mission
Spacecraft
Bus & Motor
Unknown
Mass
Unknown
Launch date (UTC)
2005-07-05 (20 years ago)
Launch vehicle
Unknown
Launch site
Jiuquan Satellite Launch Center, China (JSC)
Object type
Payload
Rocket body
Debris
Shape & HBR
Unknown shape, 0.1 m
Radar Cross Section
Small (<0.1 m²)

Expand to show TLE details & history
Last TLE update: 1 week ago

TLE from 1 week ago
0 CZ-2D DEB
1 31409U 05024J   25282.36760674  .00048146  00000-0  54001-3 0  9992
2 31409  97.1786 315.1702 0003266   7.4843 352.6464 15.62521408 94602
Epoch: 2025-10-09T08:49Z
TLE epoch observation values (Epoch: 2025-10-09T08:49:21.222Z)
Latitude
-0°
Longitude
164.60297°
Altitude
381.341 km
Speed
7.682 km/s
True Right ascension
21h 00m 40s
True Declination
0° 00' 00"
Sunlit
Object was in full shadow at epoch
Visualization orbit readout
Latitude
Unknown
Longitude
Unknown
Altitude
Unknown
Speed
Unknown
Apparent Right ascension
Unknown
Apparent Declination
Unknown
Sunlit
N/A
Visualization observer readout
Local Sidereal Time
07:09:22
Azimuth
Unknown
Elevation
Unknown
Doppler factor
Unknown
Orbital elements
Apogee altitude
379.483 km
Perigee altitude
375.07 km
Semi-major axis
6,755.413 km
Eccentricity
0.00033
Inclination
97.1786°
RAAN
315.1702°
Arg. of periapsis
7.4843°
True anomaly
352.64161°
Mean anomaly
352.6464°
Eccentric anomaly
352.644°
Mean motion
3.909 °/min
Orbital period
92.1 mins
BSTAR
0.00054001
Loading maneuver chart data...
Computing Atmospheric mass density...
Loading historical data...
Loading historical data...
Loading historical data...
Loading historical data...
Loading historical data...
Loading historical data...
Loading historical data...

Documentation

Showing up to 5 results
|